{"data":{"norad_id":67186,"intl_designator":"2025-303Z","name":"STARLINK-35857","alt_names":[],"object_type":"PAYLOAD","status":"ACTIVE","operator":null,"country":"US","launch_date":"2025-12-17","launch_site_code":"AFETR","launch_vehicle":null,"mission":null,"orbit_class":"UNKNOWN","rcs_meters":null,"size_class":null,"mass_kg":null,"dimensions":null,"purposes":["comms"],"wikipedia_slug":null,"has_3d_model":false,"image_url":null,"decayed_at":null,"tle_current":{"epoch":"2026-09-20T03:05:31.197984Z","epoch_age_seconds":111096,"freshness":"FRESH","line1":"1 67186U 25303Z   26263.12883331  .00007993  00000+0  29958-3 0  9992","line2":"2 67186  42.9982 292.4851 0001224 277.0785  82.9928 15.27588325 42471","mean_motion":15.27588325,"eccentricity":0.0001224,"inclination_deg":42.9982,"raan_deg":292.4851,"arg_perigee_deg":277.0785,"mean_anomaly_deg":82.9928,"bstar":0.00029958,"rev_number":4247,"period_min":94.266234981863,"perigee_km":482.18436198098,"apogee_km":483.86397423494,"semimajor_km":6861.161168108,"source":"CELESTRAK","updated_at":"2026-09-21T09:00:36.133387Z"}}}